Location: Pedholt
(56.0260°N, 10.2097°E)
Time: 18:33:35
(UTC+00:00)

A-11 Canister half - Pass Details

Date: 30 July 2021
Orbit: 1515 x 1685 km, 47.2° (Epoch: 20 September)

Event Time Altitude Azimuth Distance (km) Brightness Sun altitude
Rises 23:48:30 0° 283° (WNW) 4,930 11.8 -15.6°
Reaches altitude 10° 23:52:57 10° 267° (W) 3,949 11.0 -15.5°
Maximum altitude 23:59:08 18° 229° (SW) 3,320 10.3 -15.4°
Enters shadow 00:01:48 17° 210° (SSW) 3,441 10.3 -15.3°
Drops below altitude 10° 00:05:19 10° 190° (S) 3,933 - -15.2°
Sets 00:09:46 0° 174° (S) 4,902 - -15.1°
